Theta_e
308 307 306 305 305 306 308 309 309 310 311 311 311 310 309 309 310 314 317 321 320 319 315 315 318 318 315 315 315 313 312 313 316 318 319 314 345 345 341 341 339 341 339 337 338
309 308 307 305 305 306 308 308 311 314 314 312 312 310 310 310 315 317 316 324 321 315 313 317 317 316 313 315 314 313 311 315 316 317 317 315 325 342 344 340 338 338 341 338 334
311 309 308 306 305 306 308 309 314 314 312 313 311 310 310 312 325 326 325 322 318 314 313 315 316 314 315 315 315 315 314 314 320 317 316 316 317 333 342 343 336 338 342 340 335
312 311 310 308 306 307 308 311 315 312 309 309 309 311 311 318 327 324 319 318 315 313 314 317 316 315 315 316 315 318 315 317 318 317 319 318 316 322 341 341 337 335 338 340 341
309 310 311 309 306 307 308 311 315 311 309 310 311 312 318 324 321 320 317 315 313 312 316 320 318 315 316 316 316 316 318 318 317 317 318 318 319 317 336 339 337 339 343 342 343
307 307 309 309 307 307 308 312 315 313 311 312 312 312 319 325 323 318 317 315 317 317 319 318 317 315 317 317 317 317 318 317 317 318 318 318 319 318 327 335 344 345 343 341 342
310 307 308 309 307 307 310 313 315 316 315 312 313 319 323 323 323 321 320 320 320 321 319 319 317 317 317 317 318 318 318 315 317 318 319 318 317 319 323 340 346 343 339 336 335
313 310 307 307 307 309 312 313 316 317 317 315 316 324 325 328 322 321 321 320 319 319 319 320 319 317 317 317 315 317 315 315 315 317 319 316 315 316 322 345 345 342 338 334 332
312 312 308 306 307 311 313 314 317 318 317 318 326 325 329 321 321 322 321 320 319 319 320 320 318 317 316 315 314 313 316 316 315 314 318 317 318 319 342 344 344 340 337 334 331
311 313 313 309 310 313 315 318 317 316 324 322 323 324 324 322 321 322 322 321 319 318 318 318 312 314 312 313 317 318 319 318 317 319 318 321 321 320 341 342 340 337 335 332 329
313 312 314 314 314 314 316 320 317 319 323 323 324 324 322 321 322 322 322 321 320 319 318 317 315 316 316 316 317 319 319 318 320 319 321 322 322 342 340 338 336 333 330 329 327
315 314 312 316 316 315 317 318 322 318 317 319 322 323 323 321 320 320 320 319 319 319 319 317 317 317 318 319 319 319 321 320 320 319 318 319 321 334 338 336 333 331 328 327 324
316 315 314 314 316 319 319 321 322 321 318 321 321 322 319 319 320 319 318 319 319 319 318 317 318 319 320 319 320 318 318 319 321 320 318 317 315 341 337 333 330 328 326 325 322
317 316 315 313 319 319 320 322 319 320 319 323 322 319 319 318 320 320 320 319 319 320 319 319 319 319 318 322 319 320 319 319 319 316 318 315 314 336 337 334 331 326 325 324 321
317 317 316 313 317 319 322 321 320 321 331 327 318 320 317 319 319 319 320 320 320 321 319 319 320 320 320 321 321 322 319 320 319 317 314 314 312 320 335 336 332 328 326 324 322
318 317 316 314 316 318 321 321 320 320 326 322 319 319 318 319 320 319 320 319 319 320 320 320 320 321 320 320 320 319 319 318 315 312 315 315 315 323 335 334 331 329 326 325 323
317 317 316 315 313 317 321 317 319 323 323 322 320 319 318 319 319 321 321 319 319 320 320 321 320 320 321 321 317 317 316 317 316 316 319 318 326 326 333 331 330 328 326 324 323
317 317 316 316 320 317 318 317 325 325 327 322 320 320 318 317 318 320 320 320 322 321 320 322 323 322 322 320 320 320 316 316 319 319 322 322 335 332 331 328 327 326 324 323 322
317 316 316 318 321 321 315 321 322 326 322 322 321 320 320 320 321 321 320 320 323 322 322 321 323 321 321 320 319 320 317 316 319 319 318 321 330 330 329 329 327 326 324 322 321
314 315 319 324 320 321 317 320 322 323 322 321 321 321 323 321 320 319 320 322 322 320 318 321 321 321 321 320 319 317 317 318 315 322 324 321 328 330 333 330 328 327 324 322 320
314 315 316 322 322 316 319 319 322 323 320 322 323 324 324 324 324 322 322 320 321 319 318 318 317 319 319 320 321 316 319 318 315 318 321 322 322 325 326 329 329 327 325 322 321
312 314 320 317 315 315 318 321 323 322 319 319 320 321 322 323 324 324 323 321 319 319 321 321 320 322 324 321 321 321 321 317 318 319 320 322 321 323 322 321 325 326 326 323 321
309 311 316 319 316 314 317 323 322 323 322 321 321 321 321 322 322 323 322 319 320 321 322 319 320 322 320 320 320 323 324 323 316 316 319 319 320 320 321 320 318 318 318 325 322
310 317 316 314 312 317 319 321 322 320 320 320 320 319 320 320 319 322 320 320 320 320 326 320 317 320 320 322 321 322 322 320 321 320 320 320 320 319 319 319 317 315 315 324 323
310 315 319 319 318 318 319 320 321 322 320 318 320 320 320 321 320 322 324 319 320 328 319 313 315 320 320 323 322 322 322 322 321 318 322 319 318 316 313 315 316 315 322 324 325
312 318 317 316 317 319 317 319 321 322 321 321 320 321 320 322 323 324 324 323 323 318 319 316 319 323 324 323 323 323 322 321 320 320 315 313 315 314 317 322 323 323 324 325 325
316 318 315 316 317 319 318 320 322 321 321 320 319 319 322 321 320 319 319 318 320 319 320 320 319 322 323 323 323 320 320 320 318 315 314 315 314 320 322 323 322 321 323 323 324
Wind_Speed
19 17 15 12 11 10 10 11 13 14 13 12 10 9 9 9 10 7 5 4 3 5 8 4 6 10 8 3 1 3 4 3 4 4 4 8 7 4 5 10 5 3 4 7 29
18 17 15 12 11 10 11 12 14 12 10 8 7 7 6 8 8 8 7 6 8 7 3 2 4 5 2 3 3 4 4 6 4 4 4 6 5 4 6 10 6 4 2 18 32
18 16 14 12 10 10 11 13 11 10 8 7 6 4 4 6 2 5 3 8 7 5 5 5 6 2 3 2 2 1 5 5 3 3 6 5 5 2 11 4 7 11 8 9 15
22 17 15 12 10 9 10 12 10 9 7 5 3 1 2 2 2 3 4 6 5 3 6 2 4 4 4 3 2 2 6 5 6 2 4 3 4 3 2 10 10 13 8 19 13
24 20 15 11 9 8 10 11 8 8 6 3 1 1 1 1 6 4 5 4 4 5 4 2 3 1 2 4 7 3 2 2 5 3 3 2 5 6 4 5 4 17 21 17 12
27 22 16 10 9 8 9 10 7 7 4 3 2 1 1 2 3 2 7 6 5 6 2 5 5 6 1 3 1 4 3 3 4 4 2 4 2 5 5 10 18 23 21 21 20
30 25 17 12 9 9 10 10 5 5 4 3 2 1 1 7 6 3 5 4 6 9 3 5 1 5 2 7 4 2 4 7 4 2 2 3 6 3 7 21 20 21 18 22 20
33 28 21 14 12 11 12 9 4 4 4 3 3 1 5 3 8 7 9 11 7 6 8 7 9 2 2 3 9 6 5 4 6 3 4 6 8 9 10 25 19 19 17 20 19
33 30 25 18 14 14 14 7 3 4 4 3 2 2 7 4 6 11 11 4 8 6 5 6 3 1 6 4 6 7 3 4 10 8 5 4 4 16 23 24 17 16 15 17 15
36 31 26 22 18 17 15 10 5 5 2 2 2 4 5 3 5 12 7 6 5 3 4 1 5 3 4 5 2 4 3 5 5 2 6 2 1 9 13 16 16 14 14 13 15
37 34 27 23 23 19 19 6 5 3 2 6 6 4 4 6 5 4 7 4 2 3 1 3 5 2 7 6 7 3 2 5 6 6 5 2 3 13 11 11 9 9 13 15 14
37 37 32 23 26 18 12 3 4 6 7 10 13 7 18 7 3 5 5 1 1 4 3 6 4 8 8 4 2 7 6 6 4 8 5 3 6 8 8 7 7 7 9 9 7
36 37 36 25 21 8 14 13 16 9 0 8 6 5 7 8 6 8 7 2 5 4 6 7 7 4 2 3 5 4 7 4 1 5 2 2 4 6 8 10 9 8 7 8 8
36 36 37 27 6 19 9 22 11 7 4 6 3 5 4 6 3 13 14 6 3 2 1 4 2 4 5 4 4 4 1 5 5 5 2 4 3 1 7 6 8 6 6 6 7
36 37 36 24 13 8 17 20 17 3 2 3 6 6 6 7 5 1 4 4 1 4 4 3 3 1 6 3 3 4 1 3 1 3 4 6 3 3 9 2 1 3 5 6 7
36 36 37 14 12 13 20 23 6 5 5 3 7 6 5 4 2 5 2 2 2 2 3 3 3 4 5 3 4 2 5 8 6 4 2 2 5 5 5 6 4 3 3 5 6
36 35 29 14 6 11 20 6 4 3 4 5 6 7 6 5 6 7 5 3 3 3 3 5 6 4 4 5 8 9 7 4 5 4 6 5 4 2 7 12 10 9 8 7 6
36 33 28 22 14 13 12 5 2 5 6 4 5 6 7 7 5 8 6 3 3 3 2 4 4 5 4 4 4 3 6 5 4 3 5 6 1 3 10 13 11 10 8 7 6
34 28 18 13 9 6 5 3 6 4 5 7 4 4 3 4 5 4 6 4 2 2 6 3 2 4 5 2 4 3 2 5 4 2 2 1 3 4 6 8 9 9 8 8 7
26 14 15 1 8 2 4 5 4 4 4 3 4 5 4 5 3 6 5 4 3 3 3 1 2 2 4 3 3 5 4 3 3 2 3 4 4 4 10 11 9 10 9 9 8
10 4 9 6 10 5 3 6 5 6 1 3 2 3 3 3 3 1 4 5 3 4 8 3 4 5 3 2 1 4 2 5 4 4 4 2 5 5 8 12 14 12 13 13 12
6 3 4 11 2 1 3 5 3 6 2 1 2 2 2 3 2 4 3 3 2 3 3 1 4 1 6 6 3 2 3 4 5 5 1 4 5 4 10 9 13 15 14 14 9
3 4 10 1 2 4 5 6 12 8 2 2 3 3 3 2 2 3 3 2 5 4 7 4 2 3 8 6 7 4 4 2 4 3 4 4 5 3 5 7 8 9 12 16 14
1 3 4 4 1 4 3 4 5 2 4 4 3 4 5 5 5 2 4 5 5 4 7 8 3 6 6 4 3 4 7 4 4 3 4 6 7 10 6 7 8 4 5 5 6
2 5 4 3 4 5 1 2 2 1 2 3 4 2 1 1 3 4 6 3 7 4 4 5 4 3 4 3 2 2 6 9 4 6 5 6 5 8 8 5 4 9 8 8 4
2 1 4 4 3 5 1 3 2 1 2 3 5 8 8 5 2 2 1 3 2 3 2 3 2 2 2 3 5 6 9 10 9 11 5 5 1 4 6 10 12 7 7 7 5
5 5 4 4 4 2 4 3 2 8 3 5 7 6 7 3 2 2 1 3 4 6 3 4 5 4 4 3 4 6 5 5 3 6 4 5 2 2 7 9 6 6 5 5 4
Wind_Direction
341 335 330 331 328 326 325 325 323 318 309 305 300 308 318 319 313 294 253 227 247 285 310 321 306 284 320 288 285 110 63 326 287 324 294 319 69 5 36 78 49 42 71 139 153
341 336 330 326 325 323 325 329 329 327 315 302 302 322 327 323 311 258 236 240 266 279 275 346 314 7 304 265 350 87 98 216 226 255 39 42 50 106 88 95 46 76 118 130 150
343 332 327 322 320 322 326 335 342 339 325 312 319 335 327 334 321 257 263 228 257 250 232 275 279 218 173 52 246 162 195 151 250 242 60 24 53 43 116 34 187 173 172 149 118
355 338 325 319 320 321 328 342 346 342 329 322 329 341 348 13 167 282 235 222 239 202 241 296 22 10 359 322 216 279 236 200 202 332 47 39 133 57 166 196 178 175 143 59 65
0 350 335 321 316 321 331 342 346 347 342 342 354 49 95 35 254 264 199 182 170 184 246 46 2 175 253 283 334 162 291 117 113 110 102 132 314 149 199 166 114 58 59 70 54
7 357 348 334 325 324 330 341 341 348 354 16 33 48 68 5 196 153 168 172 187 218 257 162 222 223 213 282 114 300 119 32 20 355 328 139 240 93 291 83 82 73 65 61 55
9 4 359 351 338 331 333 342 336 335 347 23 28 71 43 230 187 73 197 217 262 240 246 321 123 68 341 330 301 255 16 0 323 316 289 113 345 233 181 93 89 84 76 67 57
11 8 4 0 348 339 337 338 327 327 335 340 347 28 249 267 175 223 238 264 249 254 278 326 351 60 123 289 358 15 48 26 292 85 242 82 282 289 127 108 104 95 84 74 61
9 10 6 1 354 343 341 333 323 323 318 327 20 30 285 304 209 226 245 227 239 253 267 300 19 48 9 62 6 3 255 246 299 205 142 109 276 47 118 114 117 110 102 96 84
7 5 4 2 354 345 345 320 298 303 349 342 294 333 274 230 185 236 249 262 209 264 0 65 43 44 29 68 238 273 316 279 218 227 75 88 53 67 104 115 118 112 109 107 102
2 1 356 356 349 339 340 337 10 6 158 206 231 234 296 141 152 194 231 328 292 62 180 333 58 240 252 210 201 240 6 20 15 0 98 113 41 116 102 85 92 112 129 135 128
358 358 353 346 340 332 338 325 215 268 302 244 249 247 255 170 186 257 202 152 133 231 104 20 218 237 209 184 53 33 56 356 341 4 74 32 53 104 80 79 88 78 61 68 81
354 354 352 341 336 0 328 289 320 359 297 296 227 193 213 143 217 217 143 189 219 264 255 169 227 194 123 42 78 31 80 67 96 309 50 108 0 102 68 85 83 70 82 68 72
348 349 350 339 340 330 303 344 333 332 46 273 204 259 180 155 231 209 189 165 349 249 202 161 267 132 62 69 89 76 350 53 23 61 261 77 267 141 110 60 66 43 54 68 54
343 345 343 338 303 306 335 333 333 52 351 219 213 208 171 152 159 205 160 46 127 295 49 216 128 108 87 153 96 183 42 24 323 20 44 352 70 293 115 92 106 98 76 66 72
338 341 336 325 300 290 333 330 335 47 255 228 163 172 130 194 225 169 152 91 205 314 355 239 260 162 143 93 51 317 27 17 35 77 3 221 180 211 195 177 151 133 153 144 134
334 335 329 312 261 307 331 360 51 161 297 201 174 167 175 218 180 167 178 178 163 79 334 1 351 354 106 76 17 64 58 355 354 7 223 296 71 246 123 139 159 167 183 191 162
331 332 324 303 286 291 335 50 184 262 275 284 182 169 180 189 236 190 138 157 94 127 93 124 3 357 17 111 153 72 134 150 224 229 274 335 146 201 154 162 164 167 165 169 168
333 332 309 295 250 276 72 65 214 243 325 352 358 116 222 189 151 121 164 165 113 109 130 134 163 17 75 101 101 313 9 177 127 322 74 204 69 45 159 165 164 166 172 184 191
330 318 291 17 208 149 82 231 253 269 319 35 41 36 24 321 157 146 166 360 90 66 111 174 119 342 19 37 336 149 173 41 7 201 239 286 208 218 189 185 187 187 198 205 204
326 347 279 301 171 63 166 228 289 283 51 57 110 44 33 356 14 61 45 10 85 77 65 79 88 294 44 65 353 6 39 65 115 138 167 311 280 235 180 189 194 203 205 204 203
352 324 214 330 356 136 188 208 231 256 82 76 83 31 14 33 35 68 106 107 92 106 85 14 130 237 231 271 184 143 130 114 117 276 130 152 269 234 187 185 193 211 210 212 201
328 256 293 207 195 261 271 265 256 219 68 69 64 61 17 105 77 81 121 148 96 102 160 177 43 33 344 354 5 45 12 108 123 83 200 141 263 248 245 211 220 219 200 206 201
37 324 310 30 137 185 261 274 326 47 119 106 118 59 59 30 22 16 129 192 133 112 100 94 111 156 194 181 219 321 325 311 147 126 224 213 249 285 257 238 251 330 58 118 186
176 242 223 298 321 312 18 276 1 344 61 92 47 66 251 229 351 30 28 83 27 132 71 101 142 188 236 279 6 287 297 301 292 227 177 247 234 271 283 318 13 93 84 82 51
219 186 348 286 280 267 91 283 267 350 92 75 95 44 67 86 58 89 45 50 146 253 95 13 202 147 292 303 337 306 284 269 274 276 166 141 214 24 58 69 58 59 78 82 83
260 292 121 261 299 48 235 245 236 119 39 61 132 104 73 105 137 193 171 172 147 152 144 131 133 113 250 253 335 319 256 238 207 18 140 74 304 95 68 79 86 81 87 103 110